CAPE
0 0 0 0 0 0 0 0 0 0 0 0 0 0 0 0 0 0 0 0 0 0 0 0 0 0 0 0 0 0 0 0 0 0 0 0 0 0 0 0 0 0 0
0 0 0 0 0 0 0 0 0 0 0 0 0 0 0 0 0 0 0 0 0 0 0 0 0 0 0 0 0 0 0 0 0 0 0 0 0 0 0 0 0 0 0
0 0 0 0 0 0 0 0 0 0 0 0 0 0 0 0 0 0 0 0 0 0 0 0 0 0 0 0 0 0 0 0 0 0 0 0 0 0 0 0 0 0 0
0 0 0 0 0 0 0 0 0 0 0 0 0 0 0 0 0 0 0 0 0 0 0 0 0 0 0 0 0 0 0 0 0 0 0 0 0 0 0 0 0 0 0
0 0 0 0 0 0 0 0 0 0 0 0 0 0 0 0 0 0 0 0 0 0 0 0 0 0 0 0 0 0 0 0 0 0 0 0 0 0 0 0 3 1 0
0 0 0 0 0 0 0 0 0 0 0 0 0 0 0 0 0 0 0 0 0 0 0 0 0 0 0 0 0 0 0 0 0 0 0 0 0 0 2 2 2 7 0
0 0 0 0 0 0 0 0 0 0 0 0 0 0 0 0 0 0 0 0 0 0 0 0 0 0 0 0 0 0 0 0 0 0 0 0 0 2 0 7 1 4 4
0 0 0 0 0 0 0 0 0 0 0 0 0 0 0 0 0 0 0 0 0 0 0 0 0 0 0 0 0 0 0 0 0 0 0 0 0 1 0 0 0 0 0
0 0 0 0 0 0 0 0 0 0 0 0 0 0 0 0 0 0 0 0 0 0 0 0 0 0 0 0 0 0 0 0 0 6 11 5 2 8 1 0 0 0 0
0 0 0 0 0 0 0 0 0 0 0 0 0 0 0 0 0 0 0 0 0 0 0 0 0 0 0 0 0 0 0 0 0 0 0 0 0 0 0 0 0 0 0
0 0 0 0 0 0 0 0 0 0 0 0 0 0 0 0 0 0 0 0 0 0 0 0 0 0 0 0 2 0 0 0 0 0 0 0 0 0 0 0 0 0 0
0 0 0 0 0 0 0 0 0 0 0 0 0 0 0 0 0 0 0 0 0 0 0 0 0 0 0 4 5 7 13 3 0 0 0 0 0 0 0 0 0 0 0
0 0 0 0 0 0 0 0 0 0 0 0 0 0 0 0 0 0 0 0 0 0 0 0 0 2 7 7 16 11 0 0 0 0 0 0 0 0 0 0 0 0 0
0 0 0 0 0 0 0 0 0 0 0 0 0 0 0 0 0 0 0 0 0 0 0 0 0 3 1 0 0 0 0 0 0 0 0 0 0 0 0 0 0 0 0
0 0 0 0 0 0 0 0 0 0 0 0 0 0 0 0 0 0 0 0 0 0 0 0 0 0 0 0 0 0 0 0 0 0 0 0 0 0 0 0 0 0 0
0 0 0 0 0 0 0 0 0 0 0 0 0 0 0 0 0 0 0 1 2 1 0 0 0 0 0 0 0 0 0 0 0 0 0 0 0 0 0 0 0 0 0
0 0 0 0 0 0 0 0 0 0 0 0 0 1 0 0 0 4 6 9 14 23 0 0 0 0 0 0 0 0 0 0 0 0 0 0 0 0 0 0 0 0 0
0 0 0 0 0 0 0 0 0 0 0 0 0 0 0 0 1 2 2 2 0 0 0 0 0 0 0 0 0 0 0 0 0 0 0 0 0 0 0 0 0 0 0
0 0 0 0 0 0 0 0 0 0 0 0 0 0 0 0 0 0 0 0 0 0 0 0 0 0 0 0 0 0 0 0 0 0 0 0 0 0 0 0 0 0 0
0 0 0 0 0 0 0 0 0 0 0 0 0 0 0 0 0 0 0 0 0 0 0 0 0 0 0 0 0 0 0 0 0 0 0 0 0 0 0 0 0 0 0
0 0 0 0 0 0 0 0 0 0 0 0 0 0 0 0 0 0 0 0 0 0 0 0 0 0 0 0 0 0 0 0 0 0 0 0 0 0 0 0 0 0 0
0 0 0 0 0 0 0 0 0 0 0 0 0 0 0 0 0 0 0 0 0 0 0 0 0 0 0 0 0 0 0 0 0 0 0 0 0 0 0 0 0 0 0
0 0 0 0 0 0 0 0 0 0 0 0 0 0 0 0 0 0 0 0 0 0 0 0 0 0 0 0 0 0 0 0 0 0 0 0 0 0 0 0 0 0 0
0 0 0 0 0 0 0 0 0 0 0 0 0 0 0 0 0 0 0 0 0 0 0 0 0 0 0 0 0 0 0 0 0 0 0 0 0 0 0 0 0 0 0
0 0 0 0 0 0 0 0 0 0 0 0 0 0 0 0 0 0 0 0 0 0 0 0 0 0 0 0 0 0 0 0 0 0 0 0 0 0 0 0 0 0 0
0 0 0 0 0 0 0 0 0 0 0 0 0 0 0 0 0 0 0 0 0 0 0 0 0 0 0 0 0 0 0 0 0 0 0 0 0 0 0 0 0 0 0
CIN
0 0 0 0 0 0 0 0 0 0 0 0 0 0 0 0 0 0 0 0 0 0 0 0 0 0 0 0 0 0 0 0 0 0 0 0 0 0 0 0 0 0 0
0 0 0 0 0 0 0 0 0 0 0 0 0 0 0 0 0 0 0 0 0 0 0 0 0 0 0 0 0 0 0 0 0 0 0 0 0 0 0 0 0 0 0
0 0 0 0 0 0 0 0 0 0 0 0 0 0 0 0 0 0 0 0 0 0 0 0 0 0 0 0 0 0 0 0 0 0 0 0 0 0 0 0 0 0 0
0 0 0 0 0 0 0 0 0 0 0 0 0 0 0 0 0 0 0 0 0 0 0 0 0 0 0 0 0 0 0 0 0 0 0 0 0 0 0 0 0 0 0
0 0 0 0 0 0 0 0 0 0 0 0 0 0 0 0 0 0 0 0 0 0 0 0 0 0 0 0 0 0 0 0 0 0 0 0 0 0 0 0 0 -1 0
0 0 0 0 0 0 0 0 0 0 0 0 0 0 0 0 0 0 0 0 0 0 0 0 0 0 0 0 0 0 0 0 0 0 0 0 0 0 0 0 0 0 0
0 0 0 0 0 0 0 0 0 0 0 0 0 0 0 0 0 0 0 0 0 0 0 0 0 0 0 0 0 0 0 0 0 -1 -1 0 0 -1 0 0 0 0 0
0 0 0 0 0 0 0 0 0 0 0 0 0 0 0 0 0 0 0 0 0 0 0 0 0 0 0 0 0 0 0 0 0 0 0 0 0 -2 -1 0 0 0 0
0 0 0 0 0 0 0 0 0 0 0 0 0 0 0 0 0 0 0 0 0 0 0 0 0 0 0 0 0 0 0 0 0 0 0 0 0 0 0 0 0 0 0
0 0 0 0 0 0 0 0 0 0 0 0 0 0 0 0 0 0 0 0 0 0 0 0 0 0 0 0 0 0 0 0 0 0 0 0 0 0 0 0 0 0 0
0 0 0 0 0 0 0 0 0 0 0 0 0 0 0 0 0 0 0 0 0 0 0 0 0 0 0 0 0 0 0 0 0 0 0 0 0 0 0 0 0 0 0
0 0 0 0 0 0 0 0 0 0 0 0 0 0 0 0 0 0 0 0 0 0 0 0 0 0 0 0 -1 0 0 -1 0 0 0 0 0 0 0 0 0 0 0
0 0 0 0 0 0 0 0 0 0 0 0 0 0 0 0 0 0 0 0 0 0 0 0 0 0 0 0 0 0 0 0 0 0 0 0 0 0 0 0 0 0 0
0 0 0 0 0 0 0 0 0 0 0 0 0 0 0 0 0 0 0 0 0 0 0 0 0 -1 -1 0 0 0 0 0 0 0 0 0 0 0 0 0 0 0 0
0 0 0 0 0 0 0 0 0 0 0 0 0 0 0 0 0 0 0 0 0 0 0 0 0 0 0 0 0 0 0 0 0 0 0 0 0 0 0 0 0 0 0
0 0 0 0 0 0 0 0 0 0 0 0 0 0 0 0 0 0 0 0 0 0 0 0 0 0 0 0 0 0 0 0 0 0 0 0 0 0 0 0 0 0 0
0 0 0 0 0 0 0 0 0 0 0 0 0 0 0 0 0 0 0 0 0 0 -3 0 0 0 0 0 0 0 0 0 0 0 0 0 0 0 0 0 0 0 0
0 0 0 0 0 0 0 0 0 0 0 0 0 0 0 0 0 0 0 0 0 0 0 0 0 0 0 0 0 0 0 0 0 0 0 0 0 0 0 0 0 0 0
0 0 0 0 0 0 0 0 0 0 0 0 0 0 0 0 0 0 0 0 0 0 0 0 0 0 0 0 0 0 0 0 0 0 0 0 0 0 0 0 0 0 0
0 0 0 0 0 0 0 0 0 0 0 0 0 0 0 0 0 0 0 0 0 0 0 0 0 0 0 0 0 0 0 0 0 0 0 0 0 0 0 0 0 0 0
0 0 0 0 0 0 0 0 0 0 0 0 0 0 0 0 0 0 0 0 0 0 0 0 0 0 0 0 0 0 0 0 0 0 0 0 0 0 0 0 0 0 0
0 0 0 0 0 0 0 0 0 0 0 0 0 0 0 0 0 0 0 0 0 0 0 0 0 0 0 0 0 0 0 0 0 0 0 0 0 0 0 0 0 0 0
0 0 0 0 0 0 0 0 0 0 0 0 0 0 0 0 0 0 0 0 0 0 0 0 0 0 0 0 0 0 0 0 0 0 0 0 0 0 0 0 0 0 0
0 0 0 0 0 0 0 0 0 0 0 0 0 0 0 0 0 0 0 0 0 0 0 0 0 0 0 0 0 0 0 0 0 0 0 0 0 0 0 0 0 0 0
0 0 0 0 0 0 0 0 0 0 0 0 0 0 0 0 0 0 0 0 0 0 0 0 0 0 0 0 0 0 0 0 0 0 0 0 0 0 0 0 0 0 0
0 0 0 0 0 0 0 0 0 0 0 0 0 0 0 0 0 0 0 0 0 0 0 0 0 0 0 0 0 0 0 0 0 0 0 0 0 0 0 0 0 0 0
Wind_Speed
12 11 12 10 10 10 9 8 9 8 9 9 8 8 7 7 6 6 5 6 6 6 4 5 5 4 3 2 1 1 1 2 4 4 2 5 5 9 10 10 11 10 9
10 11 12 12 11 11 10 10 9 11 8 9 9 8 7 7 7 7 7 6 6 6 5 5 4 3 3 3 2 3 2 2 2 9 5 4 6 9 10 11 10 9 10
10 11 10 11 13 12 11 11 10 10 9 8 8 9 8 8 7 6 6 6 6 5 5 5 4 4 3 3 3 3 3 4 3 4 7 3 6 7 10 9 10 11 9
12 12 12 12 13 12 11 11 11 10 10 9 8 8 8 8 7 6 6 6 5 5 5 4 4 5 5 4 4 5 4 4 4 5 6 8 7 8 7 10 12 9 13
13 13 12 10 9 10 11 11 10 10 9 8 9 7 7 7 6 7 7 6 6 5 4 4 5 5 7 7 4 5 5 3 4 5 6 7 7 8 10 10 10 13 13
14 13 11 11 10 11 11 11 11 10 8 8 9 9 8 6 13 16 9 6 6 5 5 5 5 5 7 12 12 12 8 4 4 3 6 8 10 9 8 11 11 11 16
14 12 12 12 12 12 11 11 12 11 9 9 9 9 9 7 16 16 15 5 5 5 5 4 4 4 6 5 10 12 12 13 14 8 9 8 11 8 12 11 13 12 13
14 13 13 13 12 11 11 12 10 9 11 10 10 9 7 7 15 16 15 6 5 6 6 5 5 5 7 7 6 7 8 9 9 7 9 8 9 10 10 11 11 11 11
14 14 13 13 13 12 12 11 9 9 8 8 6 8 9 6 17 17 13 5 7 7 6 6 6 7 12 15 8 6 8 9 10 15 15 16 16 19 17 8 5 7 10
14 14 13 13 12 14 12 12 8 8 9 7 8 8 8 7 16 17 15 4 5 5 5 7 15 12 16 15 10 8 10 7 5 1 2 6 8 9 14 8 6 6 8
10 11 13 12 13 12 11 8 9 8 5 8 7 5 7 8 9 19 19 5 7 6 7 7 7 16 17 17 18 7 9 5 3 2 3 2 4 5 5 6 8 7 8
12 11 11 12 9 8 11 7 7 9 9 6 5 3 4 5 12 18 20 21 13 7 7 6 6 15 15 17 15 18 19 6 3 1 2 3 5 5 5 6 9 9 9
10 10 10 8 8 8 9 8 5 6 7 6 6 7 6 5 5 17 18 20 20 13 6 10 16 16 18 17 19 11 3 3 1 1 3 5 4 5 8 8 9 10 11
9 7 7 8 7 5 4 6 6 7 7 6 6 7 3 3 4 4 5 7 13 13 14 7 8 13 14 13 4 8 2 2 3 3 3 4 5 5 6 6 7 8 9
6 5 5 4 6 5 2 5 5 1 6 5 5 4 4 4 5 10 8 5 6 8 6 1 2 4 7 6 3 4 3 3 4 3 2 4 5 5 6 5 6 7 7
5 4 5 5 4 4 4 2 4 6 10 10 8 6 2 9 8 9 12 15 15 15 7 8 8 6 8 8 7 6 4 4 4 3 2 2 4 5 6 6 6 6 8
6 5 4 5 4 5 3 4 4 3 7 8 9 10 11 8 9 10 11 13 16 16 8 6 5 5 6 6 6 5 3 4 4 3 3 3 4 4 5 6 6 6 8
4 5 4 4 4 4 4 3 3 4 3 1 6 7 6 6 6 8 10 11 4 6 4 3 4 3 5 5 4 3 3 3 3 3 3 3 3 2 3 5 6 6 8
3 3 3 3 3 4 4 4 3 3 3 2 3 5 8 9 8 8 9 2 1 2 2 2 2 3 4 3 3 3 3 3 3 3 3 3 3 2 3 5 6 9 10
4 7 5 4 4 4 4 4 3 4 3 3 3 2 2 4 3 3 1 1 2 2 3 3 3 4 5 3 3 2 2 2 3 3 3 3 3 3 4 5 6 7 7
4 4 6 5 4 4 4 4 3 3 3 2 1 1 5 3 1 1 2 3 3 3 3 3 4 4 4 3 2 2 3 4 3 3 3 3 3 3 4 5 6 7 7
5 4 4 4 4 4 4 4 3 3 3 2 1 2 4 2 1 2 3 3 4 4 4 3 4 4 4 3 3 4 4 4 4 4 3 3 3 3 3 4 5 6 7
4 5 4 3 4 5 4 3 3 3 3 2 2 2 1 2 2 2 3 4 3 4 4 3 4 4 4 4 4 5 5 5 5 3 4 4 4 3 3 4 5 7 6
4 4 4 4 3 3 3 3 2 3 3 3 3 3 3 2 3 4 4 4 4 5 3 4 4 6 5 4 3 4 4 5 4 4 6 5 5 4 3 4 5 8 8
4 4 4 3 3 2 1 1 2 2 3 3 3 2 2 3 3 4 4 4 4 4 5 4 4 6 8 9 7 7 8 11 8 6 4 5 6 5 4 4 6 8 9
3 2 2 2 2 3 3 2 2 2 3 3 2 3 3 4 4 4 4 4 4 5 6 4 6 9 9 7 8 9 10 11 9 10 6 5 5 5 4 7 8 7 8
Wind_Direction
166 164 159 156 148 147 153 155 157 149 154 150 148 140 143 146 145 134 144 150 137 140 138 141 141 140 139 148 134 161 198 169 261 282 280 315 303 318 319 314 312 310 312
165 160 163 155 151 155 160 164 159 160 158 155 153 148 150 155 155 157 168 163 158 161 167 153 162 152 175 182 179 203 211 215 238 287 291 304 301 312 302 305 311 307 304
160 161 159 162 162 166 165 164 164 160 161 156 153 158 166 168 166 176 175 169 172 172 171 174 177 181 206 200 198 223 210 248 233 261 287 291 294 305 308 306 307 307 302
164 164 169 172 172 167 163 166 167 166 162 166 168 167 172 168 173 173 179 174 178 181 184 188 200 208 217 217 220 222 228 222 231 253 272 290 297 308 295 313 316 313 310
171 171 176 168 169 162 160 167 164 168 171 167 162 170 169 175 178 189 182 185 181 188 198 213 220 227 236 228 205 220 222 226 237 256 273 289 300 312 319 317 308 307 305
178 179 164 163 166 181 166 167 170 173 164 161 175 178 180 191 200 202 190 187 184 190 205 221 231 239 252 255 262 267 240 193 213 216 283 289 299 309 309 309 305 323 314
174 169 166 170 175 186 172 168 176 179 170 180 183 182 195 192 206 207 207 191 185 197 206 218 230 227 233 234 256 267 275 275 270 271 287 287 295 307 304 311 316 306 299
173 172 171 174 176 183 178 177 173 172 185 186 191 194 189 207 211 213 215 178 195 210 210 212 225 235 230 236 238 236 238 240 249 262 259 267 278 299 312 310 306 303 296
178 177 175 178 179 182 184 177 177 175 184 188 184 189 196 206 210 218 217 173 205 218 213 217 225 236 244 255 254 242 247 242 249 265 280 297 307 309 310 309 302 307 305
179 178 171 180 185 189 183 180 175 190 196 187 198 197 199 204 214 221 222 173 205 220 222 233 233 237 247 252 251 242 258 252 224 268 299 296 303 299 306 297 291 289 305
155 168 180 180 184 185 178 172 177 183 165 192 198 189 200 196 214 226 228 183 213 217 228 236 235 246 256 259 259 240 246 244 254 191 246 256 291 291 283 278 288 295 288
170 166 169 179 181 172 171 162 168 177 193 194 189 217 215 199 212 230 230 232 219 216 230 240 235 249 255 258 262 264 273 285 131 23 348 309 295 288 288 293 295 288 277
152 169 172 165 165 164 167 166 154 172 187 197 201 223 225 198 210 232 234 243 246 247 225 229 244 251 255 258 267 253 237 137 132 338 277 282 278 288 296 299 293 290 288
162 157 150 162 159 152 148 161 168 181 193 199 203 223 192 168 203 206 239 252 262 253 255 278 262 257 249 255 235 262 142 189 207 225 237 269 286 292 291 296 298 307 306
130 135 143 140 162 155 139 175 182 193 185 187 209 179 168 223 220 224 221 220 232 243 257 29 285 260 260 250 219 206 218 223 230 218 233 262 281 291 292 307 299 303 291
127 144 159 156 146 140 143 68 221 198 211 215 204 180 235 236 243 245 250 248 247 242 237 240 243 232 239 239 236 234 206 217 233 218 208 232 277 290 299 304 297 290 295
150 148 138 139 149 150 135 159 167 311 211 214 224 230 206 209 232 256 266 268 263 258 251 256 248 233 237 239 234 220 218 216 195 208 217 240 258 270 298 294 292 294 294
112 129 146 143 140 139 151 156 140 161 173 246 41 73 56 21 352 330 317 320 8 5 32 7 324 302 279 253 232 223 214 195 198 205 225 231 250 223 273 280 285 287 292
104 101 107 107 107 121 124 129 134 127 124 105 42 55 30 19 5 355 356 93 248 293 297 305 273 267 269 236 230 222 212 209 197 207 224 221 253 207 245 264 276 285 290
72 105 98 112 115 109 107 111 106 99 97 93 80 59 18 41 15 330 347 357 318 265 267 259 275 276 272 248 244 236 228 218 228 223 234 230 237 228 253 267 277 284 288
90 80 91 80 82 87 94 96 92 94 104 104 116 276 250 129 190 212 266 290 269 274 270 264 273 258 260 249 236 226 225 245 229 229 228 235 228 249 226 263 278 278 278
83 88 82 98 97 87 92 101 108 108 111 117 258 298 329 80 155 236 250 261 264 257 258 252 274 254 240 224 230 227 228 236 232 227 241 236 236 230 231 255 270 275 277
93 96 90 86 94 104 95 98 112 125 153 182 208 238 246 249 269 272 270 272 268 275 271 256 264 276 267 242 235 239 246 245 243 209 227 234 227 222 207 237 262 277 273
75 87 96 91 87 81 96 123 146 176 191 203 225 244 258 269 267 268 266 271 275 271 256 264 258 253 256 249 238 231 237 254 246 225 221 228 236 225 210 228 248 261 270
75 86 89 102 109 137 136 174 208 220 218 224 261 263 270 268 271 264 263 262 264 270 274 266 252 250 256 259 257 251 245 263 254 216 208 206 227 223 215 224 256 264 269
75 93 107 135 161 179 195 221 238 253 268 276 265 263 259 269 263 261 268 269 269 265 266 259 258 261 264 260 257 260 259 256 245 233 208 203 220 234 212 235 246 257 266